CW4199 Weather Reports


Display with metric or nautical units.
time (UTC)temp
F
wind
direction
speed
MPH
gust
MPH
rain 1hr
in
rain 24hr
in
rain mn
in
humidity
%
barometer
mb
20260503172405 65 278 3.0 12.0 0.00 0.00 0.00 42 1021.8
20260503171904 65 271 1.0 12.0 0.00 0.00 0.00 44 1021.8
20260503171404 65 270 4.0 12.0 0.00 0.00 0.00 44 1021.9
20260503170905 66 224 6.0 12.0 0.00 0.00 0.00 43 1022.1
20260503170405 65 324 4.0 7.0 0.00 0.00 0.00 47 1022.1
20260503150905 60 176 6.0 12.0 0.00 0.00 0.00 53 1022.9
20260503130904 51 153 4.0 7.0 0.00 0.00 0.00 78 1022.7
20260503130404 51 139 2.0 7.0 0.00 0.00 0.00 80 1022.8
20260503110405 38 97 0.0 0.0 0.00 0.00 0.00 91 1021.8
20260503081405 40 97 0.0 0.0 0.00 0.00 0.00 89 1021.3
20260503080405 40 97 0.0 0.0 0.00 0.00 0.00 89 1021.2
20260503072904 41 97 0.0 1.0 0.00 0.00 0.00 88 1021.1
20260503072405 41 97 0.0 0.0 0.00 0.00 0.00 88 1021.0
20260503071404 41 97 0.0 0.0 0.00 0.00 0.00 88 1021.0
20260503070904 41 97 0.0 0.0 0.00 0.00 0.00 88 1021.1
20260503070404 41 97 0.0 0.0 0.00 0.00 0.00 87 1021.0
20260503054904 44 97 0.0 0.0 0.00 0.00 0.00 84 1021.3
20260503054405 44 97 0.0 0.0 0.00 0.00 0.00 83 1021.3
20260503053905 44 97 0.0 0.0 0.00 0.00 0.00 83 1021.3
20260503053405 44 97 0.0 0.0 0.00 0.00 0.00 83 1021.4
20260503052904 45 97 0.0 0.0 0.00 0.00 0.00 83 1021.3
20260503051904 45 97 0.0 0.0 0.00 0.00 0.00 82 1021.2
20260503051404 45 97 0.0 0.0 0.00 0.00 0.00 81 1021.2
20260503050904 45 97 0.0 0.0 0.00 0.00 0.00 80 1021.1
20260503050404 46 97 0.0 0.0 0.00 0.00 0.00 80 1021.1
20260503045904 46 97 0.0 0.0 0.00 0.00 0.00 80 1021.1
20260503045404 46 97 0.0 1.0 0.00 0.00 0.00 79 1021.0
20260503044904 46 97 0.0 1.0 0.00 0.00 0.00 79 1021.0
20260503044404 46 97 0.0 0.0 0.00 0.00 0.00 79 1020.9
20260503043905 46 97 0.0 1.0 0.00 0.00 0.00 79 1020.8
20260503042904 46 97 0.0 0.0 0.00 0.00 0.00 79 1020.8
20260503042405 46 97 0.0 0.0 0.00 0.00 0.00 78 1020.9
20260503041905 46 97 0.0 0.0 0.00 0.00 0.00 78 1020.9
20260503041405 47 97 0.0 0.0 0.00 0.00 0.00 77 1020.9
20260503040904 47 97 0.0 0.0 0.00 0.00 0.00 77 1020.8
20260503040404 47 97 0.0 0.0 0.00 0.00 0.00 76 1020.9
20260503035904 47 97 0.0 0.0 0.00 0.00 0.00 75 1020.8
20260503035404 48 97 0.0 0.0 0.00 0.00 0.00 75 1020.8
20260503034904 48 97 0.0 0.0 0.00 0.00 0.00 74 1020.9
20260503034404 48 97 0.0 1.0 0.00 0.00 0.00 74 1020.8
20260503033904 49 97 0.0 0.0 0.00 0.00 0.00 73 1020.8
20260503032905 49 97 0.0 3.0 0.00 0.00 0.00 73 1020.8
20260503032405 49 97 0.0 3.0 0.00 0.00 0.00 73 1020.7
20260503031404 50 67 0.0 0.0 0.00 0.00 0.00 70 1020.7
20260503030904 50 67 0.0 1.0 0.00 0.00 0.00 69 1020.7
20260503030405 51 67 0.0 2.0 0.00 0.00 0.00 68 1020.7
20260503025405 52 67 0.0 2.0 0.00 0.00 0.00 67 1020.6
20260503024904 52 66 1.0 2.0 0.00 0.00 0.00 67 1020.5
20260503024404 52 65 1.0 2.0 0.00 0.00 0.00 66 1020.5
20260503023904 52 65 1.0 3.0 0.00 0.00 0.00 66 1020.5
20260503022904 53 66 1.0 5.0 0.00 0.00 0.00 65 1020.3
20260503022404 53 67 1.0 3.0 0.00 0.00 0.00 65 1020.2
20260503021904 53 38 3.0 5.0 0.00 0.00 0.00 64 1020.2
20260503020905 53 49 3.0 6.0 0.00 0.00 0.00 64 1020.0
20260503020405 54 60 2.0 5.0 0.00 0.00 0.00 63 1020.0
20260503014904 54 58 5.0 8.0 0.00 0.00 0.00 63 1019.8
20260503014404 54 60 5.0 10.0 0.00 0.00 0.00 62 1019.7
20260503013905 55 63 3.0 6.0 0.00 0.00 0.00 62 1019.6
20260503013404 55 53 5.0 10.0 0.00 0.00 0.00 62 1019.5
20260503011904 55 76 2.0 3.0 0.00 0.00 0.00 62 1019.3
20260503010904 56 62 3.0 7.0 0.00 0.00 0.00 61 1019.0
20260503010404 56 18 2.0 3.0 0.00 0.00 0.00 60 1018.9
20260503005904 56 17 1.0 3.0 0.00 0.00 0.00 59 1018.8
20260503005404 57 23 3.0 8.0 0.00 0.00 0.00 58 1018.7
20260503004904 57 51 3.0 8.0 0.00 0.00 0.00 58 1018.6
20260503003904 58 25 4.0 15.0 0.00 0.00 0.00 57 1018.5
20260503003404 58 50 5.0 16.0 0.00 0.00 0.00 56 1018.5
20260503002905 58 50 4.0 10.0 0.00 0.00 0.00 56 1018.4
20260503002405 58 34 5.0 12.0 0.00 0.00 0.00 55 1018.3
20260503001904 59 23 6.0 14.0 0.00 0.00 0.00 55 1018.3
20260503001404 59 8 5.0 12.0 0.00 0.00 0.00 55 1018.2
20260503000904 59 36 5.0 15.0 0.00 0.00 0.00 54 1018.1
20260503000405 60 26 9.0 20.0 0.00 0.00 0.00 53 1017.9
20260502235904 60 30 9.0 15.0 0.00 0.00 0.00 52 1017.8
20260502235404 61 29 5.0 10.0 0.00 0.00 0.00 52 1017.7
20260502234904 61 32 6.0 12.0 0.00 0.00 0.00 50 1017.6
20260502234404 61 33 6.0 12.0 0.00 0.00 0.00 48 1017.5
20260502233904 62 7 8.0 17.0 0.00 0.00 0.00 46 1017.5
20260502232905 63 26 6.0 15.0 0.00 0.00 0.00 42 1017.3
20260502232404 63 350 7.0 14.0 0.00 0.00 0.00 41 1017.2
20260502231904 63 4 3.0 8.0 0.00 0.00 0.00 41 1017.3
20260502231404 63 341 6.0 12.0 0.00 0.00 0.00 40 1017.3
20260502230904 63 342 9.0 15.0 0.00 0.00 0.00 39 1017.3
20260502230405 64 340 9.0 20.0 0.00 0.00 0.00 40 1017.2
20260502225905 64 16 6.0 14.0 0.00 0.00 0.00 39 1017.2
20260502225405 64 345 6.0 17.0 0.00 0.00 0.00 39 1017.2
20260502224904 64 339 5.0 20.0 0.00 0.00 0.00 39 1017.2
20260502224404 65 330 9.0 16.0 0.00 0.00 0.00 38 1017.3
20260502223904 65 341 12.0 20.0 0.00 0.00 0.00 38 1017.2
20260502222404 66 6 7.0 16.0 0.00 0.00 0.00 39 1017.1
20260502221904 65 4 9.0 17.0 0.00 0.00 0.00 38 1017.1
20260502221404 66 17 7.0 16.0 0.00 0.00 0.00 37 1017.0
20260502220904 66 351 12.0 16.0 0.00 0.00 0.00 38 1016.9
20260502220405 65 0 5.0 18.0 0.00 0.00 0.00 38 1016.9
20260502215904 65 319 3.0 20.0 0.00 0.00 0.00 38 1017.0
20260502215404 65 41 2.0 6.0 0.00 0.00 0.00 38 1016.9
20260502214404 67 337 9.0 15.0 0.00 0.00 0.00 35 1016.8
20260502213905 67 346 8.0 15.0 0.00 0.00 0.00 37 1016.7
20260502213404 66 352 7.0 18.0 0.00 0.00 0.00 37 1016.7
20260502212404 67 309 6.0 12.0 0.00 0.00 0.00 38 1016.7
20260502211904 67 297 7.0 13.0 0.00 0.00 0.00 37 1016.7
20260502211404 68 6 8.0 14.0 0.00 0.00 0.00 37 1016.7
20260502210905 68 316 8.0 16.0 0.00 0.00 0.00 35 1016.7
20260502205905 67 351 8.0 15.0 0.00 0.00 0.00 38 1016.7
20260502205405 67 306 9.0 17.0 0.00 0.00 0.00 35 1016.7
20260502204404 68 339 10.0 18.0 0.00 0.00 0.00 38 1016.7
20260502203904 66 343 10.0 16.0 0.00 0.00 0.00 40 1016.8
20260502203404 66 315 5.0 9.0 0.00 0.00 0.00 43 1016.8
20260502202904 65 305 7.0 16.0 0.00 0.00 0.00 42 1016.9
20260502201905 67 350 7.0 14.0 0.00 0.00 0.00 41 1016.9
20260502200904 69 296 8.0 20.0 0.00 0.00 0.00 39 1017.0
20260502195904 70 279 9.0 23.0 0.00 0.00 0.00 40 1016.9
20260502195404 69 287 9.0 18.0 0.00 0.00 0.00 40 1016.9
20260502194905 68 281 10.0 17.0 0.00 0.00 0.00 40 1017.0
20260502194404 69 288 10.0 17.0 0.00 0.00 0.00 40 1017.1
20260502193904 69 320 6.0 12.0 0.00 0.00 0.00 42 1017.2
20260502193404 68 327 6.0 15.0 0.00 0.00 0.00 43 1017.2
20260502192904 66 316 8.0 13.0 0.00 0.00 0.00 43 1017.3
20260502192404 64 286 6.0 14.0 0.00 0.00 0.00 46 1017.4
20260502191904 64 306 6.0 12.0 0.00 0.00 0.00 44 1017.4
20260502191404 65 293 5.0 15.0 0.00 0.00 0.00 43 1017.4
20260502190904 64 309 6.0 16.0 0.00 0.00 0.00 47 1017.5
20260502185904 66 295 7.0 13.0 0.00 0.00 0.00 40 1017.4
20260502184404 66 317 6.0 12.0 0.00 0.00 0.00 41 1017.6
20260502183904 66 288 9.0 21.0 0.00 0.00 0.00 39 1017.7
20260502183404 66 283 6.0 15.0 0.00 0.00 0.00 41 1017.7
20260502181905 67 342 7.0 17.0 0.00 0.00 0.00 40 1017.7
20260502181404 67 344 7.0 12.0 0.00 0.00 0.00 41 1017.8
20260502180904 67 301 9.0 14.0 0.00 0.00 0.00 41 1018.0
20260502180405 66 304 10.0 14.0 0.00 0.00 0.00 41 1018.0